Weather History for Rome, NY

Change the Weather History Date:

Sunday, September 29, 2013

  Actual Average Record
Temperature  
Mean Temperature 58 °F -  
Max Temperature 72 °F 65 °F 79 °F (1987)
Min Temperature 44 °F 43 °F 33 °F (1991)
Degree Days  
Heating Degree Days 7    
Growing Degree Days 8 (Base 50)    
Moisture  
Dew Point 48 °F    
Average Humidity 76    
Maximum Humidity 97    
Minimum Humidity 44    
Precipitation  
Precipitation 0.00 in - - ()
Sea Level Pressure  
Sea Level Pressure 30.15 in    
Wind  
Wind Speed 4 mph (SE)    
Max Wind Speed 12 mph    
Max Gust Speed 16 mph    
Visibility 10 miles    
Events      
Averages and records for this station are not official NWS values.
T = Trace of Precipitation, MM = Missing Value Source: NWS Daily Summary

Daily Weather History Graph

Daily Weather History Graph

Search for Another Location

Airport:

Trip Planner

Search our weather history database for the weather conditions in past years. The results will help you decide how hot, cold, wet, or windy it might be!

Date:

Astronomy

Sep. 29, 2013 Rise Set
Actual Time 6:56 AM EDT 6:45 PM EDT
Civil Twilight 6:28 AM EDT 7:14 PM EDT
Nautical Twilight 5:55 AM EDT 7:47 PM EDT
Astronomical Twilight 5:21 AM EDT 8:20 PM EDT
Moon 1:28 AM EDT (9/29) 3:47 PM EDT (9/29)
Length of Visible Light 12h 45m
Length of Day
11h 48m
Waning Crescent, 27% of the Moon is Illuminated
Sep 29
Waning Crescent
Oct 4
New
Oct 11
First Quarter
Oct 18
Full
Oct 26
Last Quarter

Hourly Weather History & Observations

Time (EDT) Temp. Windchill Dew Point Humidity Pressure Visibility Wind Dir Wind Speed Gust Speed Precip Events Conditions
12:53 AM 48.0 °F - 46.0 °F 93% 30.24 in 10.0 mi SE 4.6 mph - N/A   Clear
1:53 AM 46.9 °F - 45.0 °F 93% 30.24 in 10.0 mi Calm Calm - N/A   Clear
2:53 AM 46.0 °F - 44.1 °F 93% 30.22 in 10.0 mi Calm Calm - N/A   Clear
3:53 AM 45.0 °F - 44.1 °F 97% 30.22 in 10.0 mi Calm Calm - N/A   Clear
4:53 AM 44.1 °F 40.8 °F 43.0 °F 96% 30.21 in 10.0 mi ESE 5.8 mph - N/A   Clear
5:53 AM 44.1 °F 41.5 °F 43.0 °F 96% 30.21 in 10.0 mi ESE 4.6 mph - N/A   Clear
6:53 AM 44.1 °F 42.5 °F 42.1 °F 93% 30.22 in 10.0 mi ESE 3.5 mph - N/A   Clear
7:53 AM 46.9 °F - 45.0 °F 93% 30.22 in 10.0 mi ESE 4.6 mph - N/A   Clear
8:53 AM 53.1 °F - 48.9 °F 86% 30.22 in 10.0 mi SE 5.8 mph - N/A   Clear
9:53 AM 57.9 °F - 51.1 °F 78% 30.21 in 10.0 mi SE 8.1 mph - N/A   Clear
10:53 AM 63.0 °F - 51.1 °F 65% 30.20 in 10.0 mi ESE 6.9 mph - N/A   Clear
11:53 AM 66.0 °F - 52.0 °F 60% 30.17 in 10.0 mi South 9.2 mph 16.1 mph N/A   Clear
12:53 PM 69.1 °F - 52.0 °F 54% 30.15 in 10.0 mi ESE 5.8 mph - N/A   Clear
1:53 PM 70.0 °F - 48.9 °F 47% 30.12 in 10.0 mi SSW 11.5 mph - N/A   Mostly Cloudy
2:53 PM 72.0 °F - 48.9 °F 44% 30.10 in 10.0 mi SSE 8.1 mph - N/A   Mostly Cloudy
3:53 PM 71.1 °F - 48.9 °F 45% 30.07 in 10.0 mi ESE 5.8 mph - N/A   Clear
4:53 PM 71.1 °F - 48.0 °F 44% 30.06 in 10.0 mi South 6.9 mph - N/A   Clear
5:53 PM 69.1 °F - 50.0 °F 51% 30.06 in 10.0 mi SSW 5.8 mph - N/A   Clear
6:53 PM 66.9 °F - 48.9 °F 52% 30.06 in 10.0 mi WSW 3.5 mph - N/A   Clear
7:53 PM 55.9 °F - 51.1 °F 84% 30.08 in 10.0 mi Calm Calm - N/A   Clear
8:53 PM 55.9 °F - 50.0 °F 80% 30.08 in 10.0 mi East 3.5 mph - N/A   Clear
9:53 PM 54.0 °F - 50.0 °F 86% 30.08 in 10.0 mi SE 3.5 mph - N/A   Clear
10:53 PM 52.0 °F - 50.0 °F 93% 30.08 in 10.0 mi SE 4.6 mph - N/A   Clear
11:53 PM 51.1 °F - 48.9 °F 92% 30.07 in 10.0 mi ESE 5.8 mph - N/A   Clear